Stations météo

réclame
Mon MeteoGroup
Vaestmarkum, Suède (2260): Température de l'air & dewpoint: 18.02.2018 13:00:00 - 24.02.2018 13:00:00 (CET)Vaestmarkum, Suède (2260): Vitesse du vent & gusts: 18.02.2018 13:00:00 - 24.02.2018 13:00:00 (CET)Vaestmarkum, Suède (2260): Direction du vent: 18.02.2018 13:00:00 - 24.02.2018 13:00:00 (CET)Vaestmarkum, Suède (2260): reduced air pressure: 18.02.2018 13:00:00 - 24.02.2018 13:00:00 (CET)Vaestmarkum, Suède (2260): visibility: 18.02.2018 13:00:00 - 24.02.2018 13:00:00 (CET)Vaestmarkum, Suède (2260): Quantités de précipitations: 18.02.2018 13:00:00 - 24.02.2018 13:00:00 (CET)
Date & Time tt [°C] td [°C] ff [km/h] ff [knt] fx [km/h] fx [knt] dd ppp [hPa] vv [km] rr [mm]
24.02.2018 13:00:00 - - - - - - - - - -
24.02.2018 12:00:00 -12,7 -15,3 2 1 6 3 NE 1042,5 2,6 0,2
24.02.2018 11:00:00 -12,6 -14,9 0 0 9 5 N 1042,4 2,9 0,0
24.02.2018 10:00:00 -13,4 -15,4 0 0 4 2 N 1042,3 3,4 0,0
24.02.2018 09:00:00 -15,4 -17,1 0 0 3 2 N 1041,9 5 0,0
24.02.2018 08:00:00 -17,2 -19,1 0 0 3 2 N 1041,7 31 0,0
24.02.2018 07:00:00 -17,9 -19,8 0 0 3 2 N 1041,5 2,9 0,0
24.02.2018 06:00:00 -18,7 -20,6 0 0 4 2 N 1041,3 2,4 0,0
24.02.2018 05:00:00 -19,5 -21,4 2 1 4 2 NW 1040,8 3,7 0,0
24.02.2018 04:00:00 -20,7 -22,8 3 1 5 3 WNW 1040,6 2,8 0,0
24.02.2018 03:00:00 -20,6 -22,7 0 0 5 3 N 1040,5 9 0,0
24.02.2018 02:00:00 -21,0 -22,7 3 2 4 2 WNW 1040,5 15 0,0
24.02.2018 01:00:00 -21,3 -23,4 3 1 4 2 NW 1040,3 28 0,0
24.02.2018 00:00:00 -20,2 -21,7 0 0 3 2 N 1039,7 25 0,0
23.02.2018 23:00:00 -18,4 -20,2 0 0 3 2 N 1039,2 9 0,0
23.02.2018 22:00:00 -16,6 -18,0 0 0 3 2 N 1038,6 13 0,0
23.02.2018 21:00:00 -15,6 -17,1 0 0 3 1 N 1038,0 1,2 0,0
23.02.2018 20:00:00 -15,9 -17,2 0 0 3 2 N 1037,4 2,1 0,0
23.02.2018 19:00:00 -15,6 -17,0 0 0 4 2 N 1036,9 3,1 0,0
23.02.2018 18:00:00 -14,6 -15,6 3 2 5 3 W 1036,5 2,6 0,0
23.02.2018 17:00:00 -12,2 -13,5 0 0 3 1 N 1035,8 1,7 0,0
23.02.2018 16:00:00 -10,6 -13,1 0 0 10 5 N 1035,1 3,8 0,0
23.02.2018 15:00:00 -10,0 -12,6 5 3 14 8 N 1034,6 3,8 0,0
23.02.2018 14:00:00 -9,7 -12,2 5 3 16 9 NE 1034,2 4,7 0,0
23.02.2018 13:00:00 -9,5 -12,0 7 4 14 8 N 1033,9 6 0,0
23.02.2018 12:00:00 -9,3 -11,8 5 3 15 8 N 1033,4 15 0,0
23.02.2018 11:00:00 -9,9 -11,7 5 3 15 8 N 1033,0 9 0,0
23.02.2018 10:00:00 -10,7 -12,3 6 3 16 9 NW 1032,4 5 0,0
23.02.2018 09:00:00 -11,9 -13,5 6 3 17 9 NW 1032,0 4,3 0,0
23.02.2018 08:00:00 -13,5 -15,1 5 3 15 8 WNW 1031,5 2,2 0,0
23.02.2018 07:00:00 -16,6 -18,1 7 4 12 7 WNW 1031,2 4,8 0,0
23.02.2018 06:00:00 -17,0 -18,6 0 0 11 6 N 1030,4 44 0,0
23.02.2018 05:00:00 -14,6 -16,3 3 1 6 4 NW 1029,7 48 0,0
23.02.2018 04:00:00 -13,9 -15,9 5 3 9 5 W 1029,2 50 0,0
23.02.2018 03:00:00 -15,4 -17,2 0 0 6 3 N 1029,0 40 0,0
23.02.2018 02:00:00 -17,5 -19,1 3 2 6 4 W 1028,9 3,3 0,0
23.02.2018 01:00:00 -18,5 -20,4 3 2 5 3 W 1028,5 2,1 0,0
23.02.2018 00:00:00 -17,1 -18,7 3 2 8 4 W 1028,3 2,1 0,0
22.02.2018 23:00:00 -19,8 -21,5 2 1 5 3 NW 1028,2 41 0,0
22.02.2018 22:00:00 -21,1 -23,1 5 3 8 4 NW 1028,5 50 0,0
22.02.2018 21:00:00 -19,1 -20,5 3 2 5 3 WNW 1028,1 6 0,0
22.02.2018 20:00:00 -18,4 -19,8 3 2 5 3 W 1027,9 49 0,0
22.02.2018 19:00:00 -17,5 -18,7 3 2 5 3 WNW 1028,0 7 0,0
22.02.2018 18:00:00 -14,8 -15,8 3 2 4 2 W 1027,8 9 0,1
22.02.2018 17:00:00 -10,7 -11,9 0 0 5 3 N 1027,7 1,1 0,1
22.02.2018 16:00:00 -9,7 -11,3 0 0 4 2 N 1027,5 3,8 0,1
22.02.2018 15:00:00 -7,7 -9,9 0 0 13 7 N 1027,7 0,9 0,0
22.02.2018 14:00:00 -8,5 -10,4 8 4 11 6 S 1027,9 15 0,0
22.02.2018 13:00:00 -7,9 -10,4 6 3 9 5 SSE 1028,3 22 0,0
22.02.2018 12:00:00 -7,9 -10,9 4 2 5 3 SE 1028,4 17 0,0
22.02.2018 11:00:00 -9,7 -12,3 0 0 0 0 N 1028,6 17 0,0
22.02.2018 10:00:00 -11,9 -14,1 0 0 2 1 N 1029,0 31 0,0
22.02.2018 09:00:00 -15,3 -17,0 0 0 3 2 N 1029,4 3,5 0,0
22.02.2018 08:00:00 -15,8 -17,3 2 1 4 2 WNW 1029,4 2,5 0,0
22.02.2018 07:00:00 -16,7 -18,4 2 1 4 2 NW 1029,5 10 0,0
22.02.2018 06:00:00 -15,3 -17,0 0 0 3 2 N 1029,0 3,8 0,0
22.02.2018 05:00:00 -14,1 -15,7 0 0 3 2 N 1029,0 2,6 0,0
22.02.2018 04:00:00 -13,3 -14,6 3 1 4 2 N 1029,3 3,6 0,0
22.02.2018 03:00:00 -13,0 -14,4 3 2 4 2 WNW 1029,3 4,5 0,0
22.02.2018 02:00:00 -12,5 -13,9 0 0 3 2 N 1029,3 6 0,0
22.02.2018 01:00:00 -12,9 -14,2 0 0 4 2 N 1029,6 5 0,0
22.02.2018 00:00:00 -13,6 -15,2 0 0 4 2 N 1029,8 4,1 0,0
21.02.2018 23:00:00 -13,8 -15,2 0 0 5 3 N 1029,6 4,1 0,1
21.02.2018 22:00:00 -14,9 -16,3 0 0 4 2 N 1029,6 1,6 0,0
21.02.2018 21:00:00 -16,1 -17,8 3 1 4 2 WNW 1029,7 0,9 0,0
21.02.2018 20:00:00 -15,7 -17,2 0 0 4 2 N 1029,4 1,3 0,0
21.02.2018 19:00:00 -16,0 -17,5 3 1 4 2 W 1029,1 1,8 0,0
21.02.2018 18:00:00 -16,4 -17,8 2 1 4 2 W 1029,0 3,7 0,0
21.02.2018 17:00:00 -13,9 -15,2 0 0 3 2 N 1028,5 1,5 0,0
21.02.2018 16:00:00 -11,6 -13,5 2 1 9 5 SE 1028,5 1,8 0,0
21.02.2018 15:00:00 -10,8 -13,4 6 3 9 5 S 1028,5 35 0,0
21.02.2018 14:00:00 -10,0 -12,9 0 0 3 2 N 1028,6 31 0,0
21.02.2018 13:00:00 -10,2 -13,3 0 0 5 3 N 1028,9 31 0,0
21.02.2018 12:00:00 -10,3 -13,7 3 2 5 3 SSE 1029,1 29 0,0
21.02.2018 11:00:00 -12,8 -15,2 0 0 4 2 N 1028,9 30 0,0
21.02.2018 10:00:00 -18,0 -20,0 3 2 5 3 WNW 1029,1 29 0,0
21.02.2018 09:00:00 -21,3 -23,3 0 0 5 3 N 1029,4 35 0,0
21.02.2018 08:00:00 -24,6 -26,9 3 2 6 3 NW 1029,4 35 0,0
21.02.2018 07:00:00 -24,3 -26,5 3 2 5 3 NW 1029,1 50 0,0
21.02.2018 06:00:00 -23,6 -25,8 4 2 5 3 NW 1029,2 17 0,0
21.02.2018 05:00:00 -22,4 -24,6 3 1 6 3 NW 1029,4 1,5 0,0
21.02.2018 04:00:00 -23,6 -25,8 3 2 6 3 NW 1029,6 18 0,1
21.02.2018 03:00:00 -22,8 -24,9 4 2 6 3 NW 1029,7 4,0 0,0
21.02.2018 02:00:00 -21,8 -23,8 3 2 5 3 NW 1029,6 4,4 0,0
21.02.2018 01:00:00 -19,8 -21,8 3 1 6 3 NW 1029,8 1,1 0,0
21.02.2018 00:00:00 -21,4 -23,4 4 2 7 4 NW 1030,1 27 0,0
20.02.2018 23:00:00 -21,2 -23,3 5 3 7 4 NW 1029,9 3,1 0,0
20.02.2018 22:00:00 -21,4 -23,4 4 2 7 4 NW 1030,0 23 0,0
20.02.2018 21:00:00 -20,9 -22,8 4 2 6 4 NW 1029,9 24 0,0
20.02.2018 20:00:00 -20,3 -22,2 4 2 6 4 NW 1029,9 17 0,0
20.02.2018 19:00:00 -20,1 -21,8 5 3 6 4 WNW 1030,0 7 0,0
20.02.2018 18:00:00 -19,5 -21,0 4 2 5 3 WNW 1030,1 25 0,0
20.02.2018 17:00:00 -17,3 -18,5 3 2 4 2 W 1029,8 24 0,0
20.02.2018 16:00:00 -14,5 -15,4 0 0 4 2 N 1029,7 20 0,0
20.02.2018 15:00:00 -11,1 -13,7 0 0 7 4 N 1029,7 14 0,0
20.02.2018 14:00:00 -10,1 -13,4 3 2 10 5 ENE 1029,9 25 0,0
20.02.2018 13:00:00 -10,3 -13,9 5 3 9 5 ENE 1030,1 23 0,0
20.02.2018 12:00:00 -9,2 -12,8 2 1 10 5 S 1030,3 14 0,0
20.02.2018 11:00:00 -11,3 -14,1 4 2 10 6 E 1030,7 8 0,0
20.02.2018 10:00:00 -13,3 -15,6 0 0 3 1 N 1030,8 4,2 0,0
20.02.2018 09:00:00 -15,6 -17,4 3 1 4 2 NW 1030,9 11 0,0
20.02.2018 08:00:00 -18,3 -20,1 3 1 5 3 NW 1031,0 9 0,0
20.02.2018 07:00:00 -17,8 -19,4 2 1 5 3 WNW 1030,9 12 0,0
20.02.2018 06:00:00 -16,3 -17,8 3 1 5 3 WNW 1030,8 8 0,0
20.02.2018 05:00:00 -15,1 -16,6 3 1 4 2 NW 1031,0 2,4 0,0
20.02.2018 04:00:00 -14,2 -15,7 4 2 5 3 WNW 1031,4 1,3 0,1
20.02.2018 03:00:00 -13,6 -15,0 3 2 6 3 WNW 1031,5 2,7 0,0
20.02.2018 02:00:00 -14,3 -15,6 4 2 6 3 W 1031,8 1,7 0,0
20.02.2018 01:00:00 -13,6 -15,0 3 2 5 3 NW 1031,7 2,4 0,0
20.02.2018 00:00:00 -12,9 -14,3 0 0 4 2 N 1031,9 1,6 0,1
19.02.2018 23:00:00 -13,1 -14,5 0 0 4 2 N 1032,0 1,8 0,0
19.02.2018 22:00:00 -14,1 -15,2 3 2 4 2 WNW 1031,9 1,7 0,0
19.02.2018 21:00:00 -12,9 -13,7 0 0 3 2 N 1031,7 6 0,0
19.02.2018 20:00:00 -10,4 -11,7 0 0 3 2 N 1031,5 3,0 0,0
19.02.2018 19:00:00 -10,3 -11,3 0 0 3 2 N 1031,5 5 0,0
19.02.2018 18:00:00 -10,8 -11,8 2 1 4 2 W 1031,5 8 0,0
19.02.2018 17:00:00 -9,6 -10,5 0 0 4 2 N 1031,1 11 0,0
19.02.2018 16:00:00 -8,8 -10,6 0 0 5 3 N 1030,7 17 0,0
19.02.2018 15:00:00 -7,2 -9,9 0 0 8 4 N 1030,3 22 0,0
19.02.2018 14:00:00 -6,5 -9,5 4 2 7 4 N 1030,2 25 0,0
19.02.2018 13:00:00 -6,9 -9,5 2 1 11 6 SE 1030,0 11 0,0
19.02.2018 12:00:00 -6,1 -8,4 4 2 9 5 NNW 1030,0 6 0,0
19.02.2018 11:00:00 -7,2 -9,1 0 0 7 4 N 1029,6 3,4 0,0
19.02.2018 10:00:00 -8,4 -9,7 3 2 4 2 W 1029,5 - 0,0
19.02.2018 09:00:00 -8,7 -9,8 3 2 7 4 NNW 1029,1 7 0,0
19.02.2018 08:00:00 -8,9 -9,7 0 0 9 5 N 1028,6 6 0,0
19.02.2018 07:00:00 -9,5 -10,3 3 1 9 5 NNE 1028,2 8 0,0
19.02.2018 06:00:00 -11,2 -12,2 0 0 7 4 N 1027,8 15 0,0
19.02.2018 05:00:00 -12,0 -13,3 0 0 4 2 N 1027,3 17 0,0
19.02.2018 04:00:00 -13,2 -14,5 3 2 6 3 WNW 1027,1 8 0,0
19.02.2018 03:00:00 -14,9 -16,2 5 3 7 4 WNW 1026,9 17 0,0
19.02.2018 02:00:00 -13,3 -14,1 4 2 6 3 WNW 1026,7 14 0,0
19.02.2018 01:00:00 -10,3 -10,9 3 2 8 4 W 1026,3 12 0,0
19.02.2018 00:00:00 -7,6 -8,4 3 2 6 4 W 1026,1 10 0,0
18.02.2018 23:00:00 -6,4 -7,3 0 0 4 2 N 1025,8 10 0,0
18.02.2018 22:00:00 -6,6 -7,3 0 0 4 2 N 1025,6 6 0,0
18.02.2018 21:00:00 -6,2 -7,0 0 0 8 4 N 1025,1 - 0,0
18.02.2018 20:00:00 -5,6 -6,8 3 2 8 4 E 1025,0 12 0,0
18.02.2018 19:00:00 -5,1 -6,2 0 0 9 5 N 1024,9 11 0,0
18.02.2018 18:00:00 -4,9 -6,0 4 2 7 4 E 1024,7 9 0,0
18.02.2018 17:00:00 -4,6 -5,6 3 1 8 4 S 1024,5 6 0,0
18.02.2018 16:00:00 -4,2 -5,4 4 2 7 4 SSE 1024,4 9 0,0
18.02.2018 15:00:00 -4,0 -5,5 3 2 9 5 SE 1024,3 9 0,0
18.02.2018 14:00:00 -4,0 -5,3 4 2 12 7 SSE 1024,4 6 0,1
18.02.2018 13:00:00 -3,9 -5,0 6 3 11 6 SE 1024,5 7 0,0

tt = Température de l'air
td = dewpoint
ff = Vitesse du vent
fx = gusts
dd = Direction du vent
ppp = reduced air pressure
vv = visibility
rr = Quantités de précipitations

stations d'obs. à proximité